Location: Newark
(44.3290°N, 23.7757°E)
Time: 19:17:29
(UTC+00:00)

BlueWalker 3 - Pass Details

Date: 02 December 2022
Orbit: 499 x 517 km, 53.2° (Epoch: 06 February)

Event Time Altitude Azimuth Distance (km) Brightness Sun altitude
Rises 16:03:38 0° 289° (WNW) 2,629 6.5 -13.3°
Reaches altitude 10° 16:06:13 10° 305° (NW) 1,738 5.2 -13.8°
Maximum altitude 16:09:20 22° 357° (N) 1,159 3.6 -14.3°
Enters shadow 16:10:53 18° 30° (NNE) 1,323 3.6 -14.6°
